sat.trackr.live / text

‹ back to catalog

STARLINK-11198 [DTC]

NORAD 60114 · 2024-118B

PAYLOAD ACTIVE UNKNOWN

§ Identity

Operator
Country
US
Launch date
2024-06-24
Launch site
AFWTR
Launch vehicle
Mass (kg)
RCS (m²)

Purposes: comms

External: N2YO · Heavens-Above · Gunter

§ Orbital elements

Epoch: 2026-05-24T14:35:31.377984Z

Period
91.74 min
Inclination
53.1594°
Eccentricity
0.0001171
Mean motion
15.69695072 rev/d
Perigee alt
359.0 km
Apogee alt
360.6 km
Semi-major
6,737.9 km
B*
1.4489e-5
RAAN
207.2678°
Arg perigee
93.7082°
Mean anomaly
266.4070°
Rev number
10,991

§ Raw data

STARLINK-11198 [DTC]1 60114U 24118B   26144.60800206  .00001166  00000+0  14489-4 0  99902 60114  53.1594 207.2678 0001171  93.7082 266.4070 15.69695072109917

JSON: /api/v1/satellites/60114 · /tle

For live sub-satellite position, see the globe view (requires WebGL).

§ Visibility from observer

Set your observer location to see the next 7 days of passes ≥ 10°. The values pass through the URL so the page stays shareable.

No JS? Fill the form by hand. The geolocation button needs JavaScript.